User: anonymous   Login
Location: Unspecified
(0.0000°N, 0.0000°E)
Time: 18:54:33
(UTC+00:00)
Language:

SCD-1 - Orbit

View from above orbital plane
View from above orbital plane
View from above satellite
View from above satellite

Ground track
Ground track

The orbit data is extracted from the following two-line orbital elements,

1 22490U 93009B   19341.55191872  .00000211  00000-0  75773-5 0  9992
2 22490  24.9685 140.3594 0043050 151.4799 263.1040 14.44564766416360
Epoch (UTC): 07 December 2019 13:14:45
Eccentricity: 0.0043050
inclination: 24.9685°
perigee height: 713 km
apogee height: 774 km
right ascension of ascending node: 140.3594°
argument of perigee: 151.4799°
revolutions per day: 14.44564766
mean anomaly at epoch: 263.1040°
orbit number at epoch: 41636

The dashed part of the orbit path shows where the satellite is in the earth's shadow,  

DLR